TimeCDT,TemperatureF,Dew PointF,Humidity,Sea Level PressureIn,VisibilityMPH,Wind Direction,Wind SpeedMPH,Gust SpeedMPH,PrecipitationIn,Events,Conditions,WindDirDegrees,DateUTC
12:53 AM,35.1,24.1,64,30.05,10.0,SW,8.1,-,N/A,,Clear,230,2014-03-20 05:53:00
1:53 AM,37.9,25.0,60,30.03,10.0,SW,5.8,-,N/A,,Clear,220,2014-03-20 06:53:00
2:53 AM,35.1,24.1,64,30.03,10.0,SSW,5.8,-,N/A,,Clear,200,2014-03-20 07:53:00
3:53 AM,33.1,23.0,66,30.02,10.0,SW,6.9,-,N/A,,Clear,220,2014-03-20 08:53:00
4:53 AM,32.0,23.0,69,30.01,10.0,SW,3.5,-,N/A,,Clear,220,2014-03-20 09:53:00
5:53 AM,33.1,21.9,64,30.00,10.0,SSW,5.8,-,N/A,,Clear,210,2014-03-20 10:53:00
6:53 AM,28.9,21.9,75,29.99,10.0,Calm,Calm,-,N/A,,Clear,0,2014-03-20 11:53:00
7:53 AM,25.0,21.0,85,29.98,10.0,Calm,Calm,-,N/A,,Clear,0,2014-03-20 12:53:00
8:53 AM,33.1,26.1,75,29.96,10.0,Calm,Calm,-,N/A,,Clear,0,2014-03-20 13:53:00
9:53 AM,43.0,28.0,56,29.96,10.0,Calm,Calm,-,N/A,,Clear,0,2014-03-20 14:53:00
10:53 AM,50.0,24.1,36,29.94,10.0,West,8.1,-,N/A,,Clear,260,2014-03-20 15:53:00
11:14 AM,52.0,24.1,34,29.92,10.0,West,9.2,-,N/A,,Clear,280,2014-03-20 16:14:00
11:53 AM,54.0,25.0,33,29.92,10.0,NNW,8.1,-,N/A,,Clear,330,2014-03-20 16:53:00
12:53 PM,57.9,21.9,25,29.90,10.0,WNW,4.6,-,N/A,,Clear,290,2014-03-20 17:53:00
1:53 PM,62.1,21.0,21,29.88,10.0,WNW,10.4,-,N/A,,Clear,290,2014-03-20 18:53:00
2:53 PM,64.0,19.0,18,29.86,10.0,NW,15.0,23.0,N/A,,Clear,310,2014-03-20 19:53:00
3:53 PM,66.0,19.0,17,29.84,10.0,NW,8.1,17.3,N/A,,Clear,320,2014-03-20 20:53:00
4:53 PM,66.0,15.1,14,29.83,10.0,NW,10.4,-,N/A,,Clear,310,2014-03-20 21:53:00
5:53 PM,64.0,12.9,14,29.83,10.0,WNW,9.2,-,N/A,,Clear,290,2014-03-20 22:53:00
6:53 PM,64.0,10.9,13,29.84,10.0,WNW,6.9,-,N/A,,Clear,290,2014-03-20 23:53:00
7:53 PM,54.0,16.0,22,29.83,10.0,Calm,Calm,-,N/A,,Clear,0,2014-03-21 00:53:00
8:53 PM,50.0,18.0,28,29.83,10.0,South,6.9,-,N/A,,Clear,170,2014-03-21 01:53:00
9:53 PM,50.0,18.0,28,29.81,10.0,South,8.1,-,N/A,,Clear,170,2014-03-21 02:53:00
10:53 PM,46.9,19.0,33,29.79,10.0,SSE,8.1,-,N/A,,Clear,150,2014-03-21 03:53:00
11:53 PM,42.1,19.0,40,29.79,10.0,South,9.2,-,N/A,,Clear,170,2014-03-21 04:53:00